Hourly Data Report for December 07, 2019

All times are specified in Local Standard Time (LST). Add 1 hour to adjust for Daylight Saving Time where and when it is observed.

CORAL HARBOUR A
NUNAVUT
Current Station Operator: NAVCAN

64°11'36.000" N
83°21'34.000" W
62.20 m
2301002
71915
YZS

Download Data

Hourly Data (December 2019)
Hourly Data Report for December 7, 2019
TIME Temp Definition
°C
Dew Point Definition
°C
Rel Hum Definition
%
Wind Dir Definition
10's deg

Wind Spd Definition
km/h
Visibility Definition
km
Stn Press Definition
kPa
Hmdx Definition


Wind Chill Definition


Weather Definition


00:00 -32.5 -35.7 74 36 15 24.1 99.64   -44 LegendNANA
01:00 -33.1 -36.4 73 34 16 24.1 99.62   -46 Mainly Clear
02:00 -31.5 -34.6 75 2 13 24.1 99.59   -42 LegendNANA
03:00 -29.7 -32.8 75 36 17 24.1 99.58   -42 LegendNANA
04:00 -29.1 -32.2 75 35 13 24.1 99.54   -39 Snow
05:00 -27.4 -30.5 76 36 9 24.1 99.52   -36 LegendNANA
06:00 -24.4 -27.5 76 4 15 24.1 99.48   -35 Snow
07:00 -23.6 -26.7 76 5 22 24.1 99.43   -36 Snow
08:00 -24.1 -27.2 76 4 25 19.3 99.37   -37 Snow
09:00 -28.9 -32.1 75 34 20 19.3 99.33   -42 Snow
10:00 -30.5 -33.9 73 34 24 24.1 99.34   -45 Ice Crystals,Blowing Snow
11:00 -30.8 -34.1 73 34 26 24.1 99.33   -46 Ice Crystals,Blowing Snow
12:00 -30.3 -33.7 73 34 31 24.1 99.28   -46 Ice Crystals,Blowing Snow
13:00 -30.1 -33.6 73 33 30 24.1 99.25   -46 Ice Crystals,Blowing Snow
14:00 -29.9 -33.2 73 33 29 24.1 99.21   -45 Ice Crystals,Blowing Snow
15:00 -28.8 -32.1 73 33 25 24.1 99.19   -43 Ice Crystals,Blowing Snow
16:00 -28.1 -31.3 75 33 27 24.1 99.19   -42 Ice Crystals,Blowing Snow
17:00 -27.6 -30.8 75 33 31 24.1 99.16   -43 Ice Crystals,Blowing Snow
18:00 -24.8 -27.7 77 33 35 9.7 99.10   -40 Snow,Blowing Snow
19:00 -23.3 -26.0 79 33 34 1.2 99.04   -38 Snow,Blowing Snow
20:00 -22.4 -25.1 79 33 39 1.2 98.99   -37 Snow,Blowing Snow
21:00 -20.1 -22.6 81 33 33 3.2 98.94   -33 Snow,Blowing Snow
22:00 -17.9 -20.7 79 2 28 9.7 98.89   -29 Snow,Blowing Snow
23:00 -17.0 -19.4 82 3 40 24.1 98.86   -30 Snow,Blowing Snow

Notes on Data Quality.

Legend

  • E = Estimated
  • M = Missing
  • NA = Not Available
Date modified: